Location: Wildlife_Club
(35.6000°N, 81.4330°W)
Time: 06:01:55
(UTC-04:00)

Vanguard 2 Rocket - Pass Details

Date: 21 June 2019
Orbit: 554 x 3327 km, 32.9° (Epoch: 15 October)

Event Time Altitude Azimuth Distance (km) Brightness Sun altitude
Rises 21:35:40 0° 219° (SW) 3,454 9.9 -9.4°
Reaches altitude 10° 21:37:57 10° 210° (SSW) 2,759 9.3 -9.8°
Maximum altitude 21:44:08 37° 144° (SE) 2,038 8.2 -10.8°
Drops below altitude 10° 21:54:21 10° 84° (E) 4,594 10.1 -12.4°
Sets 21:59:21 0° 78° (ENE) 6,077 10.8 -13.1°
